Home   Weather   Ohrid   Past weeks

Flag for Macedonia, Republic of Past Weather in Ohrid, Macedonia, Republic of — Yesterday and Last 2 Weeks

Now
68 °F

Passing clouds.


Feels Like: 68 °F
Forecast: 46 / 69 °F
Wind: 7 mph from Southeast

Location: Ohrid Airport

Current Time: Apr 27, 2017 at 6:58:32 pm

Latest Report: Apr 27, 2017 at 6:00 pm


Visibility: N/A

Pressure: 30.04 "Hg (27.70 "Hg at 696m altitude)

Humidity: 46%

Dew Point: 46 °F

Location of OhridLocation

Past Weather in Ohrid — Graph

°F

Ohrid Temperature Yesterday

Maximum temperature yesterday: 70 °F (at 3:00 pm)
Minimum temperature yesterday: 55 °F (at 10:00 am)
Average temperature yesterday: 64 °F

High & Low Weather Summary for the Past Weeks

 TemperatureHumidityPressure
High72 °F (Apr 27, 5:00 pm)93% (Apr 18, 6:30 am)30.21 "Hg (Apr 18, 6:30 am)
Low28 °F (Apr 22, 6:00 am)21% (Apr 26, 3:00 pm)29.74 "Hg (Apr 19, 8:00 am)
Average53 °F55%29.99 "Hg
* Reported Apr 13 8:30 am — Apr 27 5:30 pm, Ohrid, Weather by CustomWeather, © 2017

Note: Actual official high and low records may vary slightly from our data, if they occured in-between our weather recording intervals... More about our weather records

Advertising

Ohrid Weather History for the Previous 24 Hours

Scroll right to see more
 ConditionsComfort  
Time TempWeatherWind HumidityBarometerVisibility
5:30 pm
Thu, Apr 27
72 °FPassing clouds.3 mph36%30.01 "HgN/A
5:00 pm72 °FPassing clouds.3 mph36%30.01 "HgN/A
4:30 pm70 °FPassing clouds.3 mph43%30.01 "HgN/A
4:00 pm70 °FPassing clouds.6 mph43%30.04 "HgN/A
3:30 pm68 °FPassing clouds.6 mph46%30.04 "HgN/A
3:00 pm68 °FPassing clouds.3 mph43%30.04 "HgN/A
2:30 pm68 °FPassing clouds.5 mph43%30.04 "HgN/A
2:00 pm66 °FPassing clouds.2 mph43%30.07 "HgN/A
1:30 pm64 °FPassing clouds.3 mph40%30.07 "HgN/A
1:00 pm63 °FPassing clouds.5 mph39%30.07 "HgN/A
12:30 pm63 °FPassing clouds.5 mph39%30.07 "HgN/A
12:00 pm61 °FPassing clouds.5 mph39%30.09 "HgN/A
11:30 am61 °FPassing clouds.5 mph48%30.09 "HgN/A
11:00 am59 °FPassing clouds.5 mph55%30.09 "Hg10 mi
10:30 am57 °FSunny.3 mph63%30.09 "Hg10 mi
10:00 am55 °FSunny.5 mph67%30.09 "Hg10 mi
Weather by CustomWeather, © 2017

See weather overviewHow to use our weather pages